#timestamp,LO_Frequency,Hit,StdDev 
1617386835.8,286047033.9,P
1617386855.6,286047034.3,P
1617386875.4,286047034.3,P
1617386895.3,286047032.0,Y
1617386915.1,286046998.4,P
1617386935.8,286046998.5,N
1617386955.7,286046998.5,N
1617386975.5,286047001.0,N
1617386995.4,286047000.3,N
1617387015.2,286047000.1,N
1617387035.0,286047004.4,N
1617387035.9,286047004.4,N
1617387055.8,286047001.8,N
1617387075.6,286047004.3,N
1617387095.4,286047001.4,N
1617387115.3,286047003.6,N
1617387135.1,286047003.8,N
1617387155.9,286047004.6,N
1617387175.7,286047004.9,N
1617387195.5,286047006.8,N
1617387215.4,286047007.2,N
1617387235.2,286047006.8,N
1617387255.0,286047008.8,N
1617387255.9,286047008.8,N
1617387275.8,286047009.1,N
1617387295.6,286047008.4,N
1617387315.5,286047010.3,N
1617387335.3,286047010.3,N
1617387355.1,286047012.4,N
1617387375.9,286047009.5,N
1617387395.7,286047009.8,N
1617387415.5,286047011.7,N
1617387435.4,286047012.8,N
1617387455.2,286047014.5,N
1617387475.1,286047015.7,Y
1617387476.0,286047015.7,P
1617387495.8,286047009.7,N
1617387515.6,286047013.2,P
1617387535.5,286047013.5,Y
1617387555.3,286047002.8,P
1617387575.2,286047001.9,N
1617387595.9,286047004.0,N
1617387615.7,286047001.6,N
1617387635.6,286047001.5,N
1617387655.4,286047002.3,N
1617387675.2,286047002.7,N
1617387695.1,286046999.7,N
1617387696.0,286046999.7,N
1617387715.8,286047002.8,N
1617387735.7,286046999.8,N
1617387755.5,286047002.5,N
1617387775.3,286047002.0,N
1617387795.2,286047004.2,N
1617387815.0,286047004.2,N
1617387815.9,286047004.2,N
1617387835.7,286047003.6,N
1617387855.6,286047004.2,N
1617387875.4,286047003.0,N
1617387895.3,286047006.6,N
1617387915.1,286047008.8,Y
1617387916.0,286047008.8,P
1617387935.8,286047007.3,N
1617387955.7,286047010.8,P
1617387975.5,286047008.4,N
1617387995.3,286047004.5,N
1617388015.2,286047004.6,N
1617388035.0,286047004.9,N
1617388035.9,286047004.9,N
1617388055.8,286047007.6,Y
1617388075.6,286047002.7,P
1617388095.4,286047001.0,N
1617388115.3,286047000.5,N
1617388135.1,286047000.4,N
1617388155.9,286047000.4,N
1617388175.7,286046998.5,N
1617388195.5,286046998.2,N
1617388215.4,286046998.2,N
1617388265.2,286047000.0,E
1617388275.1,286047000.1,N
1617388295.9,286047001.8,P
1617388315.7,286047001.5,N
1617388335.6,286047001.5,N
1617388355.4,286047003.2,Y
1617388375.2,286047001.5,P
1617388395.1,286047003.9,P
1617388396.0,286047003.9,P
1617388415.8,286047004.0,Y
1617388435.6,286047001.3,P
1617388455.5,286047004.0,P
1617388475.3,286047003.5,P
1617388495.2,286047002.9,N
1617388515.9,286047005.2,Y
1617388535.7,286047002.6,P
1617388555.6,286047001.5,P
1617388575.4,286047001.4,N
1617388595.2,286047001.4,N
1617388615.1,286047001.8,N
1617388616.0,286047001.8,N
1617388635.8,286047003.9,Y
1617388655.7,286047001.5,P
1617388675.5,286047002.0,P
1617388695.3,286047002.0,P
1617388715.2,286047004.0,Y
1617388735.0,286047000.9,P
1617388735.9,286047000.9,N
1617388755.8,286047000.3,N
1617388775.6,286047000.0,N
1617388795.4,286047001.2,N
1617388815.3,286047000.5,N
1617388835.1,286047001.1,N
1617388855.8,286047001.2,N
1617388875.7,286046999.9,N
1617388895.5,286046999.7,N
1617388915.4,286047003.5,Y
1617388935.2,286047001.3,P
1617388955.0,286047001.5,P
1617388955.9,286047001.5,P
1617388975.8,286047001.8,Y
1617388995.6,286047000.1,P
1617389015.4,286047002.4,P
1617389035.3,286047001.6,N
1617389055.1,286047002.1,N
1617389075.9,286047001.4,N
1617389095.7,286047001.5,N
1617389115.5,286047001.4,N
1617389135.4,286047004.2,Y
1617389155.2,286047003.2,P
1617389175.0,286047004.7,P
1617389176.0,286047004.7,P
1617389195.8,286047005.4,Y
1617389215.6,286047003.3,P
1617389235.5,286047003.4,P
1617389255.3,286047005.3,P
1617389275.1,286047007.4,Y
1617389295.9,286047005.0,P
1617389315.7,286047004.9,P
1617389335.6,286047006.6,P
1617389355.4,286047007.8,Y
1617389375.2,286047005.3,P
1617389395.1,286047003.4,P
1617389396.0,286047003.4,P
1617389415.8,286047006.5,Y
1617389435.7,286046999.7,P
1617389455.5,286047002.6,N
1617389475.3,286046998.9,N
1617389495.2,286046999.5,N
1617389515.9,286046999.6,N
1617389535.7,286046996.6,N
1617389555.6,286046997.5,N
1617389575.4,286046997.5,N
1617389595